Wetterdaten: aktuell Donnerstag, 20.02.2020 05:40
Datum Zeit Temp. 2m Temp. 5cm Feuchte A. Luftdruck Regen Wind Richtung Richtung ET UV Solar Taupunkt Windchill Windben Empfang
20.02.2020 05:40 -0,5 C -0,6 C 86 % 1027,3 hPa 0,0 l/m 8,0 km/h (2 Bft) W 270 0,000 mm 0,0 UV-I 0 W/m -2,5 C -2,2 C 11,3 km/h (2 Bft) 100,00 %
20.02.2020 05:39 -0,4 C -0,6 C 85 % 1027,3 hPa 0,0 l/m 6,4 km/h (2 Bft) W-SW 247 0,000 mm 0,0 UV-I 0 W/m -2,6 C -0,4 C 9,7 km/h (2 Bft) 100,00 %
20.02.2020 05:38 -0,4 C -0,6 C 86 % 1027,3 hPa 0,0 l/m 8,0 km/h (2 Bft) W 270 0,000 mm 0,0 UV-I 0 W/m -2,4 C -2,1 C 11,3 km/h (2 Bft) 95,65 %
20.02.2020 05:37 -0,4 C -0,6 C 85 % 1027,3 hPa 0,0 l/m 8,0 km/h (2 Bft) W 270 0,000 mm 0,0 UV-I 0 W/m -2,6 C -2,1 C 11,3 km/h (2 Bft) 100,00 %
20.02.2020 05:36 -0,4 C -0,6 C 85 % 1027,3 hPa 0,0 l/m 8,0 km/h (2 Bft) W 270 0,000 mm 0,0 UV-I 0 W/m -2,6 C -2,1 C 11,3 km/h (2 Bft) 100,00 %
20.02.2020 05:35 -0,4 C -0,6 C 86 % 1027,3 hPa 0,0 l/m 9,7 km/h (2 Bft) W 270 0,000 mm 0,0 UV-I 0 W/m -2,4 C -3,6 C 12,9 km/h (3 Bft) 95,65 %
20.02.2020 05:34 -0,4 C -0,6 C 86 % 1027,3 hPa 0,0 l/m 8,0 km/h (2 Bft) W 270 0,000 mm 0,0 UV-I 0 W/m -2,4 C -2,1 C 11,3 km/h (2 Bft) 95,65 %
20.02.2020 05:33 -0,3 C -0,6 C 85 % 1027,3 hPa 0,0 l/m 8,0 km/h (2 Bft) W 270 0,000 mm 0,0 UV-I 0 W/m -2,5 C -2,0 C 12,9 km/h (3 Bft) 100,00 %
20.02.2020 05:32 -0,3 C -0,6 C 85 % 1027,3 hPa 0,0 l/m 9,7 km/h (2 Bft) W 270 0,000 mm 0,0 UV-I 0 W/m -2,5 C -3,5 C 14,5 km/h (3 Bft) 100,00 %
20.02.2020 05:31 -0,3 C 0,0 C 85 % 1027,3 hPa 0,0 l/m 6,4 km/h (2 Bft) W 270 0,000 mm 0,0 UV-I 0 W/m -2,5 C -0,3 C 11,3 km/h (2 Bft) 100,00 %
20.02.2020 05:30 -0,3 C 0,0 C 85 % 1027,3 hPa 0,0 l/m 8,0 km/h (2 Bft) W 270 0,000 mm 0,0 UV-I 0 W/m -2,5 C -2,0 C 12,9 km/h (3 Bft) 100,00 %
20.02.2020 05:29 -0,2 C 0,0 C 85 % 1027,3 hPa 0,0 l/m 12,9 km/h (3 Bft) W-NW 292 0,000 mm 0,0 UV-I 0 W/m -2,4 C -5,9 C 14,5 km/h (3 Bft) 100,00 %
20.02.2020 05:28 -0,2 C 0,0 C 85 % 1027,3 hPa 0,0 l/m 11,3 km/h (2 Bft) W 270 0,000 mm 0,0 UV-I 0 W/m -2,4 C -4,7 C 12,9 km/h (3 Bft) 100,00 %
20.02.2020 05:27 -0,2 C 0,0 C 85 % 1027,3 hPa 0,0 l/m 9,7 km/h (2 Bft) W-NW 292 0,000 mm 0,0 UV-I 0 W/m -2,4 C -3,4 C 12,9 km/h (3 Bft) 95,65 %
20.02.2020 05:26 -0,1 C 0,0 C 85 % 1027,3 hPa 0,0 l/m 11,3 km/h (2 Bft) W 270 0,000 mm 0,0 UV-I 0 W/m -2,3 C -4,6 C 14,5 km/h (3 Bft) 100,00 %
20.02.2020 05:25 -0,1 C 0,0 C 85 % 1027,3 hPa 0,0 l/m 9,7 km/h (2 Bft) W 270 0,000 mm 0,0 UV-I 0 W/m -2,3 C -3,3 C 12,9 km/h (3 Bft) 95,65 %
20.02.2020 05:24 -0,1 C 0,0 C 85 % 1027,4 hPa 0,0 l/m 6,4 km/h (2 Bft) W 270 0,000 mm 0,0 UV-I 0 W/m -2,3 C -0,1 C 11,3 km/h (2 Bft) 100,00 %
20.02.2020 05:23 -0,1 C 0,0 C 85 % 1027,3 hPa 0,0 l/m 6,4 km/h (2 Bft) W 270 0,000 mm 0,0 UV-I 0 W/m -2,3 C -0,1 C 12,9 km/h (3 Bft) 100,00 %
20.02.2020 05:22 -0,1 C 0,0 C 85 % 1027,4 hPa 0,0 l/m 8,0 km/h (2 Bft) W 270 0,000 mm 0,0 UV-I 0 W/m -2,3 C -1,8 C 12,9 km/h (3 Bft) 100,00 %
20.02.2020 05:21 0,0 C 0,0 C 85 % 1027,4 hPa 0,0 l/m 8,0 km/h (2 Bft) W-SW 247 0,000 mm 0,0 UV-I 0 W/m -2,2 C -1,6 C 11,3 km/h (2 Bft) 91,30 %
20.02.2020 05:20 0,0 C 0,0 C 85 % 1027,4 hPa 0,0 l/m 9,7 km/h (2 Bft) W-SW 247 0,000 mm 0,0 UV-I 0 W/m -2,2 C -3,2 C 14,5 km/h (3 Bft) 100,00 %
20.02.2020 05:19 0,0 C 0,0 C 85 % 1027,3 hPa 0,0 l/m 8,0 km/h (2 Bft) W-SW 247 0,000 mm 0,0 UV-I 0 W/m -2,2 C -1,6 C 14,5 km/h (3 Bft) 91,30 %
20.02.2020 05:18 0,0 C 0,0 C 85 % 1027,4 hPa 0,0 l/m 11,3 km/h (2 Bft) W-SW 247 0,000 mm 0,0 UV-I 0 W/m -2,2 C -4,5 C 12,9 km/h (3 Bft) 95,65 %
20.02.2020 05:17 0,0 C 0,0 C 85 % 1027,4 hPa 0,0 l/m 11,3 km/h (2 Bft) W-SW 247 0,000 mm 0,0 UV-I 0 W/m -2,2 C -4,5 C 14,5 km/h (3 Bft) 100,00 %
20.02.2020 05:16 0,0 C 0,0 C 85 % 1027,4 hPa 0,0 l/m 8,0 km/h (2 Bft) W-SW 247 0,000 mm 0,0 UV-I 0 W/m -2,2 C -1,6 C 12,9 km/h (3 Bft) 95,65 %
20.02.2020 05:15 0,0 C 0,0 C 85 % 1027,4 hPa 0,0 l/m 8,0 km/h (2 Bft) W-SW 247 0,000 mm 0,0 UV-I 0 W/m -2,2 C -1,6 C 11,3 km/h (2 Bft) 100,00 %
20.02.2020 05:14 0,0 C 0,0 C 85 % 1027,3 hPa 0,0 l/m 9,7 km/h (2 Bft) W 270 0,000 mm 0,0 UV-I 0 W/m -2,2 C -3,2 C 12,9 km/h (3 Bft) 100,00 %
20.02.2020 05:13 0,0 C 0,0 C 85 % 1027,4 hPa 0,0 l/m 8,0 km/h (2 Bft) W-SW 247 0,000 mm 0,0 UV-I 0 W/m -2,2 C -1,6 C 12,9 km/h (3 Bft) 95,65 %
20.02.2020 05:12 0,0 C 0,0 C 85 % 1027,5 hPa 0,0 l/m 8,0 km/h (2 Bft) W 270 0,000 mm 0,0 UV-I 0 W/m -2,2 C -1,6 C 11,3 km/h (2 Bft) 95,65 %
20.02.2020 05:11 0,0 C 0,0 C 85 % 1027,4 hPa 0,0 l/m 8,0 km/h (2 Bft) W-SW 247 0,000 mm 0,0 UV-I 0 W/m -2,2 C -1,6 C 11,3 km/h (2 Bft) 100,00 %
20.02.2020 05:10 -0,1 C 0,0 C 85 % 1027,4 hPa 0,0 l/m 6,4 km/h (2 Bft) W-SW 247 0,000 mm 0,0 UV-I 0 W/m -2,3 C -0,1 C 11,3 km/h (2 Bft) 95,65 %
20.02.2020 05:09 -0,1 C 0,0 C 85 % 1027,4 hPa 0,0 l/m 4,8 km/h (1 Bft) W-SW 247 0,000 mm 0,0 UV-I 0 W/m -2,3 C -0,1 C 11,3 km/h (2 Bft) 91,30 %
20.02.2020 05:08 -0,1 C 0,0 C 85 % 1027,5 hPa 0,0 l/m 6,4 km/h (2 Bft) W-SW 247 0,000 mm 0,0 UV-I 0 W/m -2,3 C -0,1 C 11,3 km/h (2 Bft) 100,00 %
20.02.2020 05:07 -0,1 C 0,0 C 85 % 1027,5 hPa 0,0 l/m 6,4 km/h (2 Bft) W-SW 247 0,000 mm 0,0 UV-I 0 W/m -2,3 C -0,1 C 9,7 km/h (2 Bft) 100,00 %
20.02.2020 05:06 -0,2 C 0,0 C 85 % 1027,5 hPa 0,0 l/m 6,4 km/h (2 Bft) W-SW 247 0,000 mm 0,0 UV-I 0 W/m -2,4 C -0,2 C 8,0 km/h (2 Bft) 95,65 %
20.02.2020 05:05 -0,2 C 0,0 C 85 % 1027,5 hPa 0,0 l/m 8,0 km/h (2 Bft) W 270 0,000 mm 0,0 UV-I 0 W/m -2,4 C -1,9 C 9,7 km/h (2 Bft) 95,65 %
20.02.2020 05:04 -0,2 C 0,0 C 86 % 1027,5 hPa 0,0 l/m 4,8 km/h (1 Bft) W-SW 247 0,000 mm 0,0 UV-I 0 W/m -2,3 C -0,2 C 8,0 km/h (2 Bft) 95,65 %
20.02.2020 05:03 -0,2 C 0,0 C 85 % 1027,5 hPa 0,0 l/m 4,8 km/h (1 Bft) W-SW 247 0,000 mm 0,0 UV-I 0 W/m -2,4 C -0,2 C 6,4 km/h (2 Bft) 91,30 %
20.02.2020 05:02 -0,2 C 0,0 C 86 % 1027,5 hPa 0,0 l/m 3,2 km/h (1 Bft) W-SW 247 0,000 mm 0,0 UV-I 0 W/m -2,3 C -0,2 C 8,0 km/h (2 Bft) 95,65 %
20.02.2020 05:01 -0,2 C 0,0 C 86 % 1027,5 hPa 0,0 l/m 8,0 km/h (2 Bft) W-SW 247 0,000 mm 0,0 UV-I 0 W/m -2,3 C -1,9 C 11,3 km/h (2 Bft) 100,00 %
20.02.2020 05:00 -0,2 C 0,0 C 86 % 1027,5 hPa 0,0 l/m 3,2 km/h (1 Bft) W-SW 247 0,000 mm 0,0 UV-I 0 W/m -2,3 C -0,2 C 6,4 km/h (2 Bft) 95,65 %
20.02.2020 04:59 -0,2 C 0,0 C 86 % 1027,5 hPa 0,0 l/m 3,2 km/h (1 Bft) W-SW 247 0,000 mm 0,0 UV-I 0 W/m -2,3 C -0,2 C 6,4 km/h (2 Bft) 95,65 %
20.02.2020 04:58 -0,2 C 0,0 C 86 % 1027,4 hPa 0,0 l/m 3,2 km/h (1 Bft) W-SW 247 0,000 mm 0,0 UV-I 0 W/m -2,3 C -0,2 C 6,4 km/h (2 Bft) 91,30 %
20.02.2020 04:57 -0,2 C 0,0 C 86 % 1027,4 hPa 0,0 l/m 4,8 km/h (1 Bft) W-SW 247 0,000 mm 0,0 UV-I 0 W/m -2,3 C -0,2 C 9,7 km/h (2 Bft) 91,30 %
20.02.2020 04:56 -0,2 C 0,0 C 86 % 1027,4 hPa 0,0 l/m 4,8 km/h (1 Bft) W 270 0,000 mm 0,0 UV-I 0 W/m -2,3 C -0,2 C 6,4 km/h (2 Bft) 91,30 %
20.02.2020 04:55 -0,2 C 0,0 C 86 % 1027,4 hPa 0,0 l/m 3,2 km/h (1 Bft) W-SW 247 0,000 mm 0,0 UV-I 0 W/m -2,3 C -0,2 C 6,4 km/h (2 Bft) 100,00 %
20.02.2020 04:54 -0,2 C -0,6 C 86 % 1027,4 hPa 0,0 l/m 8,0 km/h (2 Bft) W 270 0,000 mm 0,0 UV-I 0 W/m -2,3 C -1,9 C 11,3 km/h (2 Bft) 86,96 %
20.02.2020 04:53 -0,2 C -0,6 C 85 % 1027,4 hPa 0,0 l/m 4,8 km/h (1 Bft) W-SW 247 0,000 mm 0,0 UV-I 0 W/m -2,4 C -0,2 C 9,7 km/h (2 Bft) 95,65 %
20.02.2020 04:52 -0,1 C 0,0 C 85 % 1027,4 hPa 0,0 l/m 6,4 km/h (2 Bft) W 270 0,000 mm 0,0 UV-I 0 W/m -2,3 C -0,1 C 9,7 km/h (2 Bft) 95,65 %
20.02.2020 04:51 -0,1 C 0,0 C 85 % 1027,3 hPa 0,0 l/m 6,4 km/h (2 Bft) W 270 0,000 mm 0,0 UV-I 0 W/m -2,3 C -0,1 C 9,7 km/h (2 Bft) 86,96 %
20.02.2020 04:50 -0,1 C -0,6 C 85 % 1027,4 hPa 0,0 l/m 8,0 km/h (2 Bft) W 270 0,000 mm 0,0 UV-I 0 W/m -2,3 C -1,8 C 11,3 km/h (2 Bft) 91,30 %
20.02.2020 04:49 -0,1 C -0,6 C 86 % 1027,4 hPa 0,0 l/m 9,7 km/h (2 Bft) W 270 0,000 mm 0,0 UV-I 0 W/m -2,2 C -3,3 C 12,9 km/h (3 Bft) 95,65 %
20.02.2020 04:48 -0,1 C -0,6 C 85 % 1027,4 hPa 0,0 l/m 8,0 km/h (2 Bft) W 270 0,000 mm 0,0 UV-I 0 W/m -2,3 C -1,8 C 11,3 km/h (2 Bft) 100,00 %
20.02.2020 04:47 -0,1 C -0,6 C 86 % 1027,4 hPa 0,0 l/m 8,0 km/h (2 Bft) W 270 0,000 mm 0,0 UV-I 0 W/m -2,2 C -1,8 C 11,3 km/h (2 Bft) 91,30 %
20.02.2020 04:46 -0,1 C -0,6 C 86 % 1027,4 hPa 0,0 l/m 8,0 km/h (2 Bft) W-SW 247 0,000 mm 0,0 UV-I 0 W/m -2,2 C -1,8 C 11,3 km/h (2 Bft) 95,65 %
20.02.2020 04:45 -0,2 C -0,6 C 86 % 1027,3 hPa 0,0 l/m 6,4 km/h (2 Bft) W-SW 247 0,000 mm 0,0 UV-I 0 W/m -2,3 C -0,2 C 11,3 km/h (2 Bft) 91,30 %
20.02.2020 04:44 -0,2 C -0,6 C 86 % 1027,4 hPa 0,0 l/m 9,7 km/h (2 Bft) W-NW 292 0,000 mm 0,0 UV-I 0 W/m -2,3 C -3,4 C 12,9 km/h (3 Bft) 100,00 %
20.02.2020 04:43 -0,2 C -0,6 C 86 % 1027,4 hPa 0,0 l/m 8,0 km/h (2 Bft) W 270 0,000 mm 0,0 UV-I 0 W/m -2,3 C -1,9 C 11,3 km/h (2 Bft) 95,65 %
20.02.2020 04:42 -0,2 C -0,6 C 86 % 1027,4 hPa 0,0 l/m 8,0 km/h (2 Bft) W 270 0,000 mm 0,0 UV-I 0 W/m -2,3 C -1,9 C 11,3 km/h (2 Bft) 100,00 %
20.02.2020 04:41 -0,1 C -0,6 C 86 % 1027,4 hPa 0,0 l/m 8,0 km/h (2 Bft) W 270 0,000 mm 0,0 UV-I 0 W/m -2,2 C -1,8 C 11,3 km/h (2 Bft) 95,65 %
20.02.2020 04:40 -0,2 C -0,6 C 86 % 1027,4 hPa 0,0 l/m 6,4 km/h (2 Bft) W-SW 247 0,000 mm 0,0 UV-I 0 W/m -2,3 C -0,2 C 9,7 km/h (2 Bft) 91,30 %
20.02.2020 04:39 -0,2 C -0,6 C 86 % 1027,4 hPa 0,0 l/m 8,0 km/h (2 Bft) W 270 0,000 mm 0,0 UV-I 0 W/m -2,3 C -1,9 C 11,3 km/h (2 Bft) 100,00 %
20.02.2020 04:38 -0,2 C -0,6 C 86 % 1027,5 hPa 0,0 l/m 8,0 km/h (2 Bft) W-SW 247 0,000 mm 0,0 UV-I 0 W/m -2,3 C -1,9 C 11,3 km/h (2 Bft) 95,65 %
20.02.2020 04:37 -0,2 C -0,6 C 86 % 1027,4 hPa 0,0 l/m 6,4 km/h (2 Bft) W-SW 247 0,000 mm 0,0 UV-I 0 W/m -2,3 C -0,2 C 9,7 km/h (2 Bft) 95,65 %
20.02.2020 04:36 -0,2 C -0,6 C 86 % 1027,4 hPa 0,0 l/m 3,2 km/h (1 Bft) W-SW 247 0,000 mm 0,0 UV-I 0 W/m -2,3 C -0,2 C 6,4 km/h (2 Bft) 95,65 %
20.02.2020 04:35 -0,2 C -0,6 C 86 % 1027,5 hPa 0,0 l/m 8,0 km/h (2 Bft) W 270 0,000 mm 0,0 UV-I 0 W/m -2,3 C -1,9 C 11,3 km/h (2 Bft) 95,65 %
20.02.2020 04:34 -0,2 C -0,6 C 86 % 1027,5 hPa 0,0 l/m 4,8 km/h (1 Bft) W-SW 247 0,000 mm 0,0 UV-I 0 W/m -2,3 C -0,2 C 9,7 km/h (2 Bft) 95,65 %
20.02.2020 04:33 -0,2 C -0,6 C 86 % 1027,6 hPa 0,0 l/m 3,2 km/h (1 Bft) W-SW 247 0,000 mm 0,0 UV-I 0 W/m -2,3 C -0,2 C 9,7 km/h (2 Bft) 91,30 %
20.02.2020 04:32 -0,2 C -0,6 C 86 % 1027,6 hPa 0,0 l/m 3,2 km/h (1 Bft) W-SW 247 0,000 mm 0,0 UV-I 0 W/m -2,3 C -0,2 C 9,7 km/h (2 Bft) 91,30 %
20.02.2020 04:31 -0,2 C -0,6 C 86 % 1027,5 hPa 0,0 l/m 4,8 km/h (1 Bft) W 270 0,000 mm 0,0 UV-I 0 W/m -2,3 C -0,2 C 6,4 km/h (2 Bft) 100,00 %
20.02.2020 04:30 -0,2 C -0,6 C 86 % 1027,6 hPa 0,0 l/m 4,8 km/h (1 Bft) W 270 0,000 mm 0,0 UV-I 0 W/m -2,3 C -0,2 C 6,4 km/h (2 Bft) 91,30 %
20.02.2020 04:29 -0,3 C -0,6 C 86 % 1027,6 hPa 0,0 l/m 4,8 km/h (1 Bft) W 270 0,000 mm 0,0 UV-I 0 W/m -2,3 C -0,3 C 9,7 km/h (2 Bft) 95,65 %
20.02.2020 04:28 -0,3 C -0,6 C 86 % 1027,5 hPa 0,0 l/m 1,6 km/h (1 Bft) W-SW 247 0,000 mm 0,0 UV-I 0 W/m -2,3 C -0,3 C 4,8 km/h (1 Bft) 91,30 %
20.02.2020 04:27 -0,3 C -0,6 C 86 % 1027,5 hPa 0,0 l/m 3,2 km/h (1 Bft) W-SW 247 0,000 mm 0,0 UV-I 0 W/m -2,3 C -0,3 C 6,4 km/h (2 Bft) 95,65 %
20.02.2020 04:26 -0,3 C -0,6 C 86 % 1027,4 hPa 0,0 l/m 6,4 km/h (2 Bft) W 270 0,000 mm 0,0 UV-I 0 W/m -2,3 C -0,3 C 9,7 km/h (2 Bft) 100,00 %
20.02.2020 04:25 -0,4 C -0,6 C 87 % 1027,4 hPa 0,0 l/m 3,2 km/h (1 Bft) W 270 0,000 mm 0,0 UV-I 0 W/m -2,3 C -0,4 C 4,8 km/h (1 Bft) 95,65 %
20.02.2020 04:24 -0,4 C -0,6 C 86 % 1027,5 hPa 0,0 l/m 3,2 km/h (1 Bft) W-SW 247 0,000 mm 0,0 UV-I 0 W/m -2,4 C -0,4 C 6,4 km/h (2 Bft) 95,65 %
20.02.2020 04:23 -0,4 C -0,6 C 87 % 1027,5 hPa 0,0 l/m 6,4 km/h (2 Bft) W-SW 247 0,000 mm 0,0 UV-I 0 W/m -2,3 C -0,4 C 9,7 km/h (2 Bft) 95,65 %
20.02.2020 04:22 -0,4 C -0,6 C 87 % 1027,4 hPa 0,0 l/m 6,4 km/h (2 Bft) W-SW 247 0,000 mm 0,0 UV-I 0 W/m -2,3 C -0,4 C 11,3 km/h (2 Bft) 91,30 %
20.02.2020 04:21 -0,5 C -0,6 C 87 % 1027,4 hPa 0,0 l/m 6,4 km/h (2 Bft) W-SW 247 0,000 mm 0,0 UV-I 0 W/m -2,4 C -0,5 C 11,3 km/h (2 Bft) 95,65 %
20.02.2020 04:20 -0,5 C -0,6 C 87 % 1027,4 hPa 0,0 l/m 8,0 km/h (2 Bft) W-NW 292 0,000 mm 0,0 UV-I 0 W/m -2,4 C -2,2 C 11,3 km/h (2 Bft) 100,00 %
20.02.2020 04:19 -0,5 C -0,6 C 87 % 1027,5 hPa 0,0 l/m 9,7 km/h (2 Bft) W 270 0,000 mm 0,0 UV-I 0 W/m -2,4 C -3,7 C 11,3 km/h (2 Bft) 100,00 %
20.02.2020 04:18 -0,5 C -0,6 C 87 % 1027,5 hPa 0,0 l/m 9,7 km/h (2 Bft) W 270 0,000 mm 0,0 UV-I 0 W/m -2,4 C -3,7 C 12,9 km/h (3 Bft) 95,65 %
20.02.2020 04:17 -0,5 C -0,6 C 87 % 1027,4 hPa 0,0 l/m 9,7 km/h (2 Bft) W-NW 292 0,000 mm 0,0 UV-I 0 W/m -2,4 C -3,7 C 14,5 km/h (3 Bft) 95,65 %
20.02.2020 04:16 -0,6 C -1,1 C 87 % 1027,4 hPa 0,0 l/m 9,7 km/h (2 Bft) W-NW 292 0,000 mm 0,0 UV-I 0 W/m -2,5 C -3,9 C 12,9 km/h (3 Bft) 95,65 %
20.02.2020 04:15 -0,6 C -1,1 C 87 % 1027,4 hPa 0,0 l/m 8,0 km/h (2 Bft) W-NW 292 0,000 mm 0,0 UV-I 0 W/m -2,5 C -2,3 C 12,9 km/h (3 Bft) 86,96 %
20.02.2020 04:14 -0,6 C -1,1 C 87 % 1027,4 hPa 0,0 l/m 9,7 km/h (2 Bft) W 270 0,000 mm 0,0 UV-I 0 W/m -2,5 C -3,9 C 12,9 km/h (3 Bft) 95,65 %
20.02.2020 04:13 -0,7 C -1,1 C 87 % 1027,5 hPa 0,0 l/m 6,4 km/h (2 Bft) W-SW 247 0,000 mm 0,0 UV-I 0 W/m -2,6 C -0,7 C 12,9 km/h (3 Bft) 95,65 %
20.02.2020 04:12 -0,7 C -1,1 C 87 % 1027,5 hPa 0,0 l/m 12,9 km/h (3 Bft) W-NW 292 0,000 mm 0,0 UV-I 0 W/m -2,6 C -6,5 C 16,1 km/h (3 Bft) 100,00 %
20.02.2020 04:11 -0,7 C -1,1 C 87 % 1027,4 hPa 0,0 l/m 12,9 km/h (3 Bft) W 270 0,000 mm 0,0 UV-I 0 W/m -2,6 C -6,5 C 16,1 km/h (3 Bft) 91,30 %
20.02.2020 04:10 -0,7 C -1,1 C 87 % 1027,4 hPa 0,0 l/m 9,7 km/h (2 Bft) W-SW 247 0,000 mm 0,0 UV-I 0 W/m -2,6 C -4,0 C 19,3 km/h (3 Bft) 100,00 %
20.02.2020 04:09 -0,7 C -1,1 C 87 % 1027,4 hPa 0,0 l/m 12,9 km/h (3 Bft) W-SW 247 0,000 mm 0,0 UV-I 0 W/m -2,6 C -6,5 C 16,1 km/h (3 Bft) 91,30 %
20.02.2020 04:08 -0,7 C -1,1 C 87 % 1027,4 hPa 0,0 l/m 11,3 km/h (2 Bft) W 270 0,000 mm 0,0 UV-I 0 W/m -2,6 C -5,3 C 16,1 km/h (3 Bft) 100,00 %
20.02.2020 04:07 -0,7 C -1,1 C 87 % 1027,3 hPa 0,0 l/m 14,5 km/h (3 Bft) W-NW 292 0,000 mm 0,0 UV-I 0 W/m -2,6 C -7,5 C 19,3 km/h (3 Bft) 95,65 %
20.02.2020 04:06 -0,7 C -1,1 C 87 % 1027,3 hPa 0,0 l/m 12,9 km/h (3 Bft) W 270 0,000 mm 0,0 UV-I 0 W/m -2,6 C -6,5 C 17,7 km/h (3 Bft) 95,65 %
20.02.2020 04:05 -0,7 C -1,1 C 87 % 1027,4 hPa 0,0 l/m 12,9 km/h (3 Bft) W-NW 292 0,000 mm 0,0 UV-I 0 W/m -2,6 C -6,5 C 17,7 km/h (3 Bft) 100,00 %
20.02.2020 04:04 -0,7 C -1,1 C 87 % 1027,7 hPa 0,0 l/m 11,3 km/h (2 Bft) W 270 0,000 mm 0,0 UV-I 0 W/m -2,6 C -5,3 C 17,7 km/h (3 Bft) 100,00 %
20.02.2020 04:03 -0,7 C -1,1 C 87 % 1027,4 hPa 0,0 l/m 11,3 km/h (2 Bft) W-NW 292 0,000 mm 0,0 UV-I 0 W/m -2,6 C -5,3 C 14,5 km/h (3 Bft) 95,65 %
20.02.2020 04:02 -0,7 C -1,1 C 87 % 1027,4 hPa 0,0 l/m 12,9 km/h (3 Bft) W-NW 292 0,000 mm 0,0 UV-I 0 W/m -2,6 C -6,5 C 14,5 km/h (3 Bft) 95,65 %
20.02.2020 04:01 -0,7 C -1,1 C 87 % 1027,4 hPa 0,0 l/m 12,9 km/h (3 Bft) W-NW 292 0,000 mm 0,0 UV-I 0 W/m -2,6 C -6,5 C 17,7 km/h (3 Bft) 100,00 %
20.02.2020 04:00 -0,7 C -1,1 C 88 % 1027,4 hPa 0,0 l/m 14,5 km/h (3 Bft) W-NW 292 0,000 mm 0,0 UV-I 0 W/m -2,4 C -7,5 C 17,7 km/h (3 Bft) 95,65 %
20.02.2020 03:59 -0,7 C -1,1 C 88 % 1027,3 hPa 0,0 l/m 14,5 km/h (3 Bft) W-NW 292 0,000 mm 0,0 UV-I 0 W/m -2,4 C -7,5 C 14,5 km/h (3 Bft) 100,00 %
20.02.2020 03:58 -0,7 C -1,1 C 88 % 1027,4 hPa 0,0 l/m 11,3 km/h (2 Bft) W 270 0,000 mm 0,0 UV-I 0 W/m -2,4 C -5,3 C 14,5 km/h (3 Bft) 100,00 %
20.02.2020 03:57 -0,7 C -1,1 C 88 % 1027,3 hPa 0,0 l/m 12,9 km/h (3 Bft) W-NW 292 0,000 mm 0,0 UV-I 0 W/m -2,4 C -6,5 C 17,7 km/h (3 Bft) 100,00 %
20.02.2020 03:56 -0,7 C -1,1 C 88 % 1027,4 hPa 0,0 l/m 12,9 km/h (3 Bft) W-NW 292 0,000 mm 0,0 UV-I 0 W/m -2,4 C -6,5 C 17,7 km/h (3 Bft) 100,00 %
20.02.2020 03:55 -0,7 C -1,1 C 88 % 1027,4 hPa 0,0 l/m 9,7 km/h (2 Bft) W 270 0,000 mm 0,0 UV-I 0 W/m -2,4 C -4,0 C 16,1 km/h (3 Bft) 95,65 %
20.02.2020 03:54 -0,8 C -1,1 C 88 % 1027,4 hPa 0,0 l/m 11,3 km/h (2 Bft) W-NW 292 0,000 mm 0,0 UV-I 0 W/m -2,5 C -5,4 C 16,1 km/h (3 Bft) 95,65 %
20.02.2020 03:53 -0,8 C -1,1 C 88 % 1027,3 hPa 0,0 l/m 12,9 km/h (3 Bft) W-NW 292 0,000 mm 0,0 UV-I 0 W/m -2,5 C -6,6 C 17,7 km/h (3 Bft) 100,00 %
20.02.2020 03:52 -0,8 C -1,1 C 88 % 1027,3 hPa 0,0 l/m 11,3 km/h (2 Bft) W-NW 292 0,000 mm 0,0 UV-I 0 W/m -2,5 C -5,4 C 16,1 km/h (3 Bft) 100,00 %
20.02.2020 03:51 -0,8 C -1,1 C 88 % 1027,3 hPa 0,0 l/m 14,5 km/h (3 Bft) W-NW 292 0,000 mm 0,0 UV-I 0 W/m -2,5 C -7,6 C 17,7 km/h (3 Bft) 100,00 %
20.02.2020 03:50 -0,8 C -1,1 C 88 % 1027,3 hPa 0,0 l/m 14,5 km/h (3 Bft) W-NW 292 0,000 mm 0,0 UV-I 0 W/m -2,5 C -7,6 C 19,3 km/h (3 Bft) 100,00 %
20.02.2020 03:49 -0,8 C -1,1 C 88 % 1027,3 hPa 0,0 l/m 14,5 km/h (3 Bft) W-NW 292 0,000 mm 0,0 UV-I 0 W/m -2,5 C -7,6 C 17,7 km/h (3 Bft) 100,00 %
20.02.2020 03:48 -0,9 C -1,1 C 88 % 1027,3 hPa 0,0 l/m 14,5 km/h (3 Bft) W-NW 292 0,000 mm 0,0 UV-I 0 W/m -2,6 C -7,8 C 19,3 km/h (3 Bft) 91,30 %
20.02.2020 03:47 -0,9 C -1,1 C 88 % 1027,3 hPa 0,0 l/m 8,0 km/h (2 Bft) W-SW 247 0,000 mm 0,0 UV-I 0 W/m -2,6 C -2,6 C 17,7 km/h (3 Bft) 100,00 %
20.02.2020 03:46 -0,9 C -1,1 C 88 % 1027,3 hPa 0,0 l/m 14,5 km/h (3 Bft) W-SW 247 0,000 mm 0,0 UV-I 0 W/m -2,6 C -7,8 C 17,7 km/h (3 Bft) 95,65 %
20.02.2020 03:45 -1,0 C -1,1 C 88 % 1027,3 hPa 0,0 l/m 11,3 km/h (2 Bft) W 270 0,000 mm 0,0 UV-I 0 W/m -2,7 C -5,6 C 14,5 km/h (3 Bft) 95,65 %
20.02.2020 03:44 -1,0 C -1,1 C 88 % 1027,3 hPa 0,0 l/m 11,3 km/h (2 Bft) W 270 0,000 mm 0,0 UV-I 0 W/m -2,7 C -5,6 C 14,5 km/h (3 Bft) 100,00 %
20.02.2020 03:43 -1,1 C -1,1 C 88 % 1027,3 hPa 0,0 l/m 8,0 km/h (2 Bft) W 270 0,000 mm 0,0 UV-I 0 W/m -2,8 C -2,8 C 12,9 km/h (3 Bft) 100,00 %
20.02.2020 03:42 -1,1 C -1,1 C 88 % 1027,3 hPa 0,0 l/m 11,3 km/h (2 Bft) W-NW 292 0,000 mm 0,0 UV-I 0 W/m -2,8 C -5,7 C 16,1 km/h (3 Bft) 100,00 %
20.02.2020 03:41 -1,1 C -1,1 C 88 % 1027,3 hPa 0,0 l/m 11,3 km/h (2 Bft) W-NW 292 0,000 mm 0,0 UV-I 0 W/m -2,8 C -5,7 C 14,5 km/h (3 Bft) 91,30 %
20.02.2020 03:40 -1,1 C -1,1 C 88 % 1027,2 hPa 0,0 l/m 12,9 km/h (3 Bft) W-NW 292 0,000 mm 0,0 UV-I 0 W/m -2,8 C -6,9 C 17,7 km/h (3 Bft) 91,30 %
20.02.2020 03:39 -1,1 C -1,1 C 88 % 1027,3 hPa 0,0 l/m 14,5 km/h (3 Bft) W-NW 292 0,000 mm 0,0 UV-I 0 W/m -2,8 C -8,0 C 17,7 km/h (3 Bft) 91,30 %
20.02.2020 03:38 -1,0 C -1,1 C 88 % 1027,3 hPa 0,0 l/m 12,9 km/h (3 Bft) W 270 0,000 mm 0,0 UV-I 0 W/m -2,7 C -6,8 C 16,1 km/h (3 Bft) 95,65 %
20.02.2020 03:37 -1,1 C -1,1 C 88 % 1027,3 hPa 0,0 l/m 9,7 km/h (2 Bft) W 270 0,000 mm 0,0 UV-I 0 W/m -2,8 C -4,4 C 17,7 km/h (3 Bft) 95,65 %
20.02.2020 03:36 -1,1 C -1,7 C 88 % 1027,3 hPa 0,0 l/m 8,0 km/h (2 Bft) W 270 0,000 mm 0,0 UV-I 0 W/m -2,8 C -2,8 C 12,9 km/h (3 Bft) 82,61 %
20.02.2020 03:35 -1,1 C -1,7 C 88 % 1027,3 hPa 0,0 l/m 11,3 km/h (2 Bft) W-NW 292 0,000 mm 0,0 UV-I 0 W/m -2,8 C -5,7 C 14,5 km/h (3 Bft) 100,00 %
20.02.2020 03:34 -1,1 C -1,7 C 88 % 1027,3 hPa 0,0 l/m 12,9 km/h (3 Bft) W 270 0,000 mm 0,0 UV-I 0 W/m -2,8 C -6,9 C 16,1 km/h (3 Bft) 91,30 %
20.02.2020 03:33 -1,1 C -1,7 C 88 % 1027,3 hPa 0,0 l/m 9,7 km/h (2 Bft) W-NW 292 0,000 mm 0,0 UV-I 0 W/m -2,8 C -4,4 C 14,5 km/h (3 Bft) 95,65 %
20.02.2020 03:32 -1,1 C -1,7 C 88 % 1027,3 hPa 0,0 l/m 12,9 km/h (3 Bft) W-NW 292 0,000 mm 0,0 UV-I 0 W/m -2,8 C -6,9 C 14,5 km/h (3 Bft) 86,96 %
20.02.2020 03:31 -1,1 C -1,7 C 88 % 1027,3 hPa 0,0 l/m 9,7 km/h (2 Bft) W 270 0,000 mm 0,0 UV-I 0 W/m -2,8 C -4,4 C 12,9 km/h (3 Bft) 95,65 %
20.02.2020 03:30 -1,2 C -1,7 C 88 % 1027,3 hPa 0,0 l/m 11,3 km/h (2 Bft) W 270 0,000 mm 0,0 UV-I 0 W/m -2,9 C -5,8 C 14,5 km/h (3 Bft) 95,65 %
20.02.2020 03:29 -1,2 C -1,7 C 88 % 1027,4 hPa 0,0 l/m 12,9 km/h (3 Bft) W 270 0,000 mm 0,0 UV-I 0 W/m -2,9 C -7,0 C 14,5 km/h (3 Bft) 100,00 %
20.02.2020 03:28 -1,2 C -1,7 C 88 % 1027,4 hPa 0,0 l/m 11,3 km/h (2 Bft) W-NW 292 0,000 mm 0,0 UV-I 0 W/m -2,9 C -5,8 C 14,5 km/h (3 Bft) 91,30 %
20.02.2020 03:27 -1,2 C -1,7 C 88 % 1027,3 hPa 0,0 l/m 11,3 km/h (2 Bft) W-NW 292 0,000 mm 0,0 UV-I 0 W/m -2,9 C -5,8 C 14,5 km/h (3 Bft) 95,65 %
20.02.2020 03:26 -1,2 C -1,7 C 88 % 1027,3 hPa 0,0 l/m 9,7 km/h (2 Bft) W 270 0,000 mm 0,0 UV-I 0 W/m -2,9 C -4,5 C 14,5 km/h (3 Bft) 91,30 %
20.02.2020 03:25 -1,2 C -1,7 C 88 % 1027,3 hPa 0,0 l/m 9,7 km/h (2 Bft) W 270 0,000 mm 0,0 UV-I 0 W/m -2,9 C -4,5 C 12,9 km/h (3 Bft) 100,00 %
20.02.2020 03:24 -1,2 C -1,7 C 88 % 1027,4 hPa 0,0 l/m 11,3 km/h (2 Bft) W 270 0,000 mm 0,0 UV-I 0 W/m -2,9 C -5,8 C 14,5 km/h (3 Bft) 91,30 %
20.02.2020 03:23 -1,2 C -1,7 C 88 % 1027,4 hPa 0,0 l/m 9,7 km/h (2 Bft) W-SW 247 0,000 mm 0,0 UV-I 0 W/m -2,9 C -4,5 C 14,5 km/h (3 Bft) 95,65 %
20.02.2020 03:22 -1,2 C -1,7 C 88 % 1027,4 hPa 0,0 l/m 9,7 km/h (2 Bft) W-NW 292 0,000 mm 0,0 UV-I 0 W/m -2,9 C -4,5 C 12,9 km/h (3 Bft) 91,30 %
20.02.2020 03:21 -1,2 C -1,7 C 88 % 1027,3 hPa 0,0 l/m 11,3 km/h (2 Bft) W 270 0,000 mm 0,0 UV-I 0 W/m -2,9 C -5,8 C 14,5 km/h (3 Bft) 95,65 %
20.02.2020 03:20 -1,3 C -1,7 C 88 % 1027,3 hPa 0,0 l/m 12,9 km/h (3 Bft) W-NW 292 0,000 mm 0,0 UV-I 0 W/m -3,0 C -7,2 C 14,5 km/h (3 Bft) 82,61 %
20.02.2020 03:19 -1,3 C -1,7 C 88 % 1027,4 hPa 0,0 l/m 11,3 km/h (2 Bft) W-NW 292 0,000 mm 0,0 UV-I 0 W/m -3,0 C -6,0 C 16,1 km/h (3 Bft) 91,30 %
20.02.2020 03:18 -1,3 C -1,7 C 88 % 1027,4 hPa 0,0 l/m 12,9 km/h (3 Bft) W-NW 292 0,000 mm 0,0 UV-I 0 W/m -3,0 C -7,2 C 16,1 km/h (3 Bft) 95,65 %
20.02.2020 03:17 -1,3 C -1,7 C 88 % 1027,4 hPa 0,0 l/m 12,9 km/h (3 Bft) W-NW 292 0,000 mm 0,0 UV-I 0 W/m -3,0 C -7,2 C 16,1 km/h (3 Bft) 95,65 %
20.02.2020 03:16 -1,3 C -2,2 C 88 % 1027,4 hPa 0,0 l/m 11,3 km/h (2 Bft) W-NW 292 0,000 mm 0,0 UV-I 0 W/m -3,0 C -6,0 C 14,5 km/h (3 Bft) 95,65 %
20.02.2020 03:15 -1,3 C -2,2 C 88 % 1027,4 hPa 0,0 l/m 12,9 km/h (3 Bft) W-NW 292 0,000 mm 0,0 UV-I 0 W/m -3,0 C -7,2 C 14,5 km/h (3 Bft) 91,30 %
20.02.2020 03:14 -1,3 C -1,7 C 88 % 1027,4 hPa 0,0 l/m 11,3 km/h (2 Bft) W-NW 292 0,000 mm 0,0 UV-I 0 W/m -3,0 C -6,0 C 14,5 km/h (3 Bft) 95,65 %
20.02.2020 03:13 -1,3 C -1,7 C 88 % 1027,4 hPa 0,0 l/m 14,5 km/h (3 Bft) W-NW 292 0,000 mm 0,0 UV-I 0 W/m -3,0 C -8,2 C 16,1 km/h (3 Bft) 82,61 %
20.02.2020 03:12 -1,2 C -1,7 C 88 % 1027,4 hPa 0,0 l/m 11,3 km/h (2 Bft) W-NW 292 0,000 mm 0,0 UV-I 0 W/m -2,9 C -5,8 C 16,1 km/h (3 Bft) 95,65 %
20.02.2020 03:11 -1,2 C -1,7 C 88 % 1027,4 hPa 0,0 l/m 9,7 km/h (2 Bft) W-NW 292 0,000 mm 0,0 UV-I 0 W/m -2,9 C -4,5 C 12,9 km/h (3 Bft) 95,65 %
20.02.2020 03:10 -1,2 C -1,7 C 88 % 1027,4 hPa 0,0 l/m 14,5 km/h (3 Bft) W-NW 292 0,000 mm 0,0 UV-I 0 W/m -2,9 C -8,1 C 17,7 km/h (3 Bft) 95,65 %
20.02.2020 03:09 -1,2 C -1,7 C 88 % 1027,3 hPa 0,0 l/m 12,9 km/h (3 Bft) W-NW 292 0,000 mm 0,0 UV-I 0 W/m -2,9 C -7,0 C 16,1 km/h (3 Bft) 100,00 %
20.02.2020 03:08 -1,2 C -1,7 C 88 % 1027,4 hPa 0,0 l/m 12,9 km/h (3 Bft) W-NW 292 0,000 mm 0,0 UV-I 0 W/m -2,9 C -7,0 C 14,5 km/h (3 Bft) 91,30 %
20.02.2020 03:07 -1,2 C -1,7 C 88 % 1027,4 hPa 0,0 l/m 12,9 km/h (3 Bft) W-NW 292 0,000 mm 0,0 UV-I 0 W/m -2,9 C -7,0 C 16,1 km/h (3 Bft) 100,00 %
20.02.2020 03:06 -1,1 C -1,7 C 88 % 1027,4 hPa 0,0 l/m 11,3 km/h (2 Bft) W-NW 292 0,000 mm 0,0 UV-I 0 W/m -2,8 C -5,7 C 14,5 km/h (3 Bft) 91,30 %
20.02.2020 03:05 -1,2 C -1,7 C 88 % 1027,3 hPa 0,0 l/m 12,9 km/h (3 Bft) W 270 0,000 mm 0,0 UV-I 0 W/m -2,9 C -7,0 C 16,1 km/h (3 Bft) 100,00 %
20.02.2020 03:04 -1,1 C -1,7 C 88 % 1027,3 hPa 0,0 l/m 11,3 km/h (2 Bft) W 270 0,000 mm 0,0 UV-I 0 W/m -2,8 C -5,7 C 14,5 km/h (3 Bft) 95,65 %
20.02.2020 03:03 -1,1 C -1,7 C 88 % 1027,3 hPa 0,0 l/m 11,3 km/h (2 Bft) W 270 0,000 mm 0,0 UV-I 0 W/m -2,8 C -5,7 C 16,1 km/h (3 Bft) 91,30 %
20.02.2020 03:02 -1,1 C -1,7 C 88 % 1027,3 hPa 0,0 l/m 12,9 km/h (3 Bft) W 270 0,000 mm 0,0 UV-I 0 W/m -2,8 C -6,9 C 16,1 km/h (3 Bft) 95,65 %
20.02.2020 03:01 -1,1 C -1,7 C 88 % 1027,3 hPa 0,0 l/m 14,5 km/h (3 Bft) W-NW 292 0,000 mm 0,0 UV-I 0 W/m -2,8 C -8,0 C 19,3 km/h (3 Bft) 95,65 %
20.02.2020 03:00 -1,1 C -1,7 C 88 % 1027,3 hPa 0,0 l/m 8,0 km/h (2 Bft) W 270 0,025 mm 0,0 UV-I 0 W/m -2,8 C -2,8 C 16,1 km/h (3 Bft) 100,00 %
20.02.2020 02:59 -1,2 C -1,7 C 88 % 1027,3 hPa 0,0 l/m 9,7 km/h (2 Bft) W 270 0,000 mm 0,0 UV-I 0 W/m -2,9 C -4,5 C 14,5 km/h (3 Bft) 95,65 %
20.02.2020 02:58 -1,2 C -1,7 C 88 % 1027,3 hPa 0,0 l/m 14,5 km/h (3 Bft) W 270 0,000 mm 0,0 UV-I 0 W/m -2,9 C -8,1 C 17,7 km/h (3 Bft) 100,00 %
20.02.2020 02:57 -1,2 C -1,7 C 88 % 1027,3 hPa 0,0 l/m 11,3 km/h (2 Bft) W 270 0,000 mm 0,0 UV-I 0 W/m -2,9 C -5,8 C 17,7 km/h (3 Bft) 100,00 %
20.02.2020 02:56 -1,2 C -1,7 C 88 % 1027,3 hPa 0,0 l/m 11,3 km/h (2 Bft) W 270 0,000 mm 0,0 UV-I 0 W/m -2,9 C -5,8 C 14,5 km/h (3 Bft) 95,65 %
20.02.2020 02:55 -1,2 C -1,7 C 88 % 1027,4 hPa 0,0 l/m 14,5 km/h (3 Bft) W-NW 292 0,000 mm 0,0 UV-I 0 W/m -2,9 C -8,1 C 17,7 km/h (3 Bft) 100,00 %
20.02.2020 02:54 -1,1 C -1,7 C 88 % 1027,3 hPa 0,0 l/m 12,9 km/h (3 Bft) W 270 0,000 mm 0,0 UV-I 0 W/m -2,8 C -6,9 C 16,1 km/h (3 Bft) 95,65 %
20.02.2020 02:53 -1,1 C -1,7 C 88 % 1027,3 hPa 0,0 l/m 14,5 km/h (3 Bft) W-NW 292 0,000 mm 0,0 UV-I 0 W/m -2,8 C -8,0 C 17,7 km/h (3 Bft) 100,00 %
20.02.2020 02:52 -1,1 C -1,7 C 88 % 1027,3 hPa 0,0 l/m 12,9 km/h (3 Bft) W 270 0,000 mm 0,0 UV-I 0 W/m -2,8 C -6,9 C 17,7 km/h (3 Bft) 95,65 %
20.02.2020 02:51 -1,1 C -1,7 C 88 % 1027,3 hPa 0,0 l/m 12,9 km/h (3 Bft) W 270 0,000 mm 0,0 UV-I 0 W/m -2,8 C -6,9 C 16,1 km/h (3 Bft) 95,65 %
20.02.2020 02:50 -1,1 C -1,7 C 88 % 1027,2 hPa 0,0 l/m 12,9 km/h (3 Bft) W-NW 292 0,000 mm 0,0 UV-I 0 W/m -2,8 C -6,9 C 16,1 km/h (3 Bft) 95,65 %
20.02.2020 02:49 -1,1 C -1,7 C 88 % 1027,3 hPa 0,0 l/m 14,5 km/h (3 Bft) W-NW 292 0,000 mm 0,0 UV-I 0 W/m -2,8 C -8,0 C 17,7 km/h (3 Bft) 95,65 %
20.02.2020 02:48 -1,1 C -1,7 C 87 % 1027,3 hPa 0,0 l/m 12,9 km/h (3 Bft) W-NW 292 0,000 mm 0,0 UV-I 0 W/m -3,0 C -6,9 C 17,7 km/h (3 Bft) 100,00 %
20.02.2020 02:47 -1,1 C -1,7 C 87 % 1027,3 hPa 0,0 l/m 14,5 km/h (3 Bft) W-NW 292 0,000 mm 0,0 UV-I 0 W/m -3,0 C -8,0 C 16,1 km/h (3 Bft) 100,00 %
20.02.2020 02:46 -1,0 C -1,7 C 87 % 1027,2 hPa 0,0 l/m 16,1 km/h (3 Bft) W-NW 292 0,000 mm 0,0 UV-I 0 W/m -2,9 C -8,9 C 17,7 km/h (3 Bft) 95,65 %
20.02.2020 02:45 -0,9 C -1,7 C 87 % 1027,3 hPa 0,0 l/m 14,5 km/h (3 Bft) W-NW 292 0,000 mm 0,0 UV-I 0 W/m -2,8 C -7,8 C 17,7 km/h (3 Bft) 95,65 %
20.02.2020 02:44 -0,9 C -1,1 C 87 % 1027,3 hPa 0,0 l/m 14,5 km/h (3 Bft) W-NW 292 0,000 mm 0,0 UV-I 0 W/m -2,8 C -7,8 C 16,1 km/h (3 Bft) 95,65 %
20.02.2020 02:43 -0,9 C -1,1 C 87 % 1027,3 hPa 0,0 l/m 14,5 km/h (3 Bft) W-NW 292 0,000 mm 0,0 UV-I 0 W/m -2,8 C -7,8 C 17,7 km/h (3 Bft) 95,65 %
20.02.2020 02:42 -0,9 C -1,1 C 87 % 1027,3 hPa 0,0 l/m 12,9 km/h (3 Bft) W-NW 292 0,000 mm 0,0 UV-I 0 W/m -2,8 C -6,7 C 17,7 km/h (3 Bft) 95,65 %
20.02.2020 02:41 -0,8 C -1,1 C 87 % 1027,3 hPa 0,0 l/m 12,9 km/h (3 Bft) W 270 0,000 mm 0,0 UV-I 0 W/m -2,7 C -6,6 C 17,7 km/h (3 Bft) 95,65 %
20.02.2020 02:40 -0,8 C -1,1 C 87 % 1027,4 hPa 0,0 l/m 14,5 km/h (3 Bft) W 270 0,000 mm 0,0 UV-I 0 W/m -2,7 C -7,6 C 16,1 km/h (3 Bft) 100,00 %
20.02.2020 02:39 -0,7 C -1,1 C 87 % 1027,4 hPa 0,0 l/m 11,3 km/h (2 Bft) W-NW 292 0,000 mm 0,0 UV-I 0 W/m -2,6 C -5,3 C 16,1 km/h (3 Bft) 95,65 %
20.02.2020 02:38 -0,7 C -1,1 C 87 % 1027,4 hPa 0,0 l/m 12,9 km/h (3 Bft) W-NW 292 0,000 mm 0,0 UV-I 0 W/m -2,6 C -6,5 C 17,7 km/h (3 Bft) 95,65 %
20.02.2020 02:37 -0,6 C -1,1 C 87 % 1027,4 hPa 0,0 l/m 12,9 km/h (3 Bft) W-NW 292 0,000 mm 0,0 UV-I 0 W/m -2,5 C -6,3 C 16,1 km/h (3 Bft) 95,65 %
20.02.2020 02:36 -0,6 C -1,1 C 87 % 1027,3 hPa 0,0 l/m 12,9 km/h (3 Bft) W-NW 292 0,000 mm 0,0 UV-I 0 W/m -2,5 C -6,3 C 16,1 km/h (3 Bft) 95,65 %
20.02.2020 02:35 -0,6 C -1,1 C 87 % 1027,4 hPa 0,0 l/m 14,5 km/h (3 Bft) W-NW 292 0,000 mm 0,0 UV-I 0 W/m -2,5 C -7,4 C 16,1 km/h (3 Bft) 95,65 %
20.02.2020 02:34 -0,5 C -1,1 C 87 % 1027,5 hPa 0,0 l/m 14,5 km/h (3 Bft) W-NW 292 0,000 mm 0,0 UV-I 0 W/m -2,4 C -7,3 C 17,7 km/h (3 Bft) 100,00 %
20.02.2020 02:33 -0,4 C -1,1 C 87 % 1027,5 hPa 0,0 l/m 12,9 km/h (3 Bft) W-NW 292 0,000 mm 0,0 UV-I 0 W/m -2,3 C -6,1 C 17,7 km/h (3 Bft) 91,30 %
20.02.2020 02:32 -0,4 C -1,1 C 87 % 1027,4 hPa 0,0 l/m 11,3 km/h (2 Bft) W-NW 292 0,000 mm 0,0 UV-I 0 W/m -2,3 C -4,9 C 14,5 km/h (3 Bft) 91,30 %
20.02.2020 02:31 -0,4 C -1,1 C 87 % 1027,5 hPa 0,0 l/m 12,9 km/h (3 Bft) W-NW 292 0,000 mm 0,0 UV-I 0 W/m -2,3 C -6,1 C 14,5 km/h (3 Bft) 95,65 %
20.02.2020 02:30 -0,4 C -1,1 C 87 % 1027,5 hPa 0,0 l/m 12,9 km/h (3 Bft) W-NW 292 0,000 mm 0,0 UV-I 0 W/m -2,3 C -6,1 C 14,5 km/h (3 Bft) 100,00 %
20.02.2020 02:29 -0,4 C -1,1 C 87 % 1027,5 hPa 0,0 l/m 11,3 km/h (2 Bft) W 270 0,000 mm 0,0 UV-I 0 W/m -2,3 C -4,9 C 14,5 km/h (3 Bft) 95,65 %
20.02.2020 02:28 -0,4 C -1,1 C 87 % 1027,5 hPa 0,0 l/m 14,5 km/h (3 Bft) W-NW 292 0,000 mm 0,0 UV-I 0 W/m -2,3 C -7,2 C 17,7 km/h (3 Bft) 95,65 %
20.02.2020 02:27 -0,3 C -0,6 C 87 % 1027,5 hPa 0,0 l/m 12,9 km/h (3 Bft) W-NW 292 0,000 mm 0,0 UV-I 0 W/m -2,2 C -6,0 C 17,7 km/h (3 Bft) 95,65 %
20.02.2020 02:26 -0,3 C -0,6 C 87 % 1027,6 hPa 0,0 l/m 12,9 km/h (3 Bft) W 270 0,000 mm 0,0 UV-I 0 W/m -2,2 C -6,0 C 16,1 km/h (3 Bft) 100,00 %
20.02.2020 02:25 -0,3 C -0,6 C 87 % 1027,5 hPa 0,0 l/m 14,5 km/h (3 Bft) W 270 0,000 mm 0,0 UV-I 0 W/m -2,2 C -7,0 C 17,7 km/h (3 Bft) 100,00 %
20.02.2020 02:24 -0,2 C -0,6 C 87 % 1027,6 hPa 0,0 l/m 12,9 km/h (3 Bft) W 270 0,000 mm 0,0 UV-I 0 W/m -2,1 C -5,9 C 17,7 km/h (3 Bft) 91,30 %
20.02.2020 02:23 -0,2 C -0,6 C 87 % 1027,6 hPa 0,0 l/m 11,3 km/h (2 Bft) W-SW 247 0,000 mm 0,0 UV-I 0 W/m -2,1 C -4,7 C 14,5 km/h (3 Bft) 100,00 %
20.02.2020 02:22 -0,2 C -0,6 C 87 % 1027,6 hPa 0,0 l/m 8,0 km/h (2 Bft) W 270 0,000 mm 0,0 UV-I 0 W/m -2,1 C -1,9 C 12,9 km/h (3 Bft) 95,65 %
20.02.2020 02:21 -0,2 C -0,6 C 87 % 1027,7 hPa 0,0 l/m 9,7 km/h (2 Bft) W 270 0,000 mm 0,0 UV-I 0 W/m -2,1 C -3,4 C 16,1 km/h (3 Bft) 100,00 %
20.02.2020 02:20 -0,2 C -0,6 C 87 % 1027,7 hPa 0,0 l/m 6,4 km/h (2 Bft) W-SW 247 0,000 mm 0,0 UV-I 0 W/m -2,1 C -0,2 C 11,3 km/h (2 Bft) 95,65 %
20.02.2020 02:19 -0,2 C -0,6 C 87 % 1027,7 hPa 0,0 l/m 9,7 km/h (2 Bft) W 270 0,000 mm 0,0 UV-I 0 W/m -2,1 C -3,4 C 14,5 km/h (3 Bft) 100,00 %
20.02.2020 02:18 -0,2 C -0,6 C 87 % 1027,7 hPa 0,0 l/m 8,0 km/h (2 Bft) W 270 0,000 mm 0,0 UV-I 0 W/m -2,1 C -1,9 C 12,9 km/h (3 Bft) 100,00 %
20.02.2020 02:17 -0,2 C -0,6 C 87 % 1027,6 hPa 0,0 l/m 8,0 km/h (2 Bft) W 270 0,000 mm 0,0 UV-I 0 W/m -2,1 C -1,9 C 14,5 km/h (3 Bft) 95,65 %
20.02.2020 02:16 -0,2 C -0,6 C 87 % 1027,6 hPa 0,0 l/m 9,7 km/h (2 Bft) W 270 0,000 mm 0,0 UV-I 0 W/m -2,1 C -3,4 C 12,9 km/h (3 Bft) 95,65 %
20.02.2020 02:15 -0,2 C -0,6 C 87 % 1027,7 hPa 0,0 l/m 12,9 km/h (3 Bft) W 270 0,000 mm 0,0 UV-I 0 W/m -2,1 C -5,9 C 16,1 km/h (3 Bft) 95,65 %
20.02.2020 02:14 -0,2 C -0,6 C 88 % 1027,7 hPa 0,0 l/m 6,4 km/h (2 Bft) W-NW 292 0,000 mm 0,0 UV-I 0 W/m -1,9 C -0,2 C 12,9 km/h (3 Bft) 100,00 %
20.02.2020 02:13 -0,2 C -0,6 C 87 % 1027,7 hPa 0,0 l/m 9,7 km/h (2 Bft) W-NW 292 0,000 mm 0,0 UV-I 0 W/m -2,1 C -3,4 C 12,9 km/h (3 Bft) 86,96 %
20.02.2020 02:12 -0,2 C -0,6 C 87 % 1027,7 hPa 0,0 l/m 6,4 km/h (2 Bft) W-NW 292 0,000 mm 0,0 UV-I 0 W/m -2,1 C -0,2 C 11,3 km/h (2 Bft) 100,00 %
20.02.2020 02:11 -0,2 C -0,6 C 88 % 1027,8 hPa 0,0 l/m 12,9 km/h (3 Bft) W-NW 292 0,000 mm 0,0 UV-I 0 W/m -1,9 C -5,9 C 16,1 km/h (3 Bft) 100,00 %
20.02.2020 02:10 -0,2 C -0,6 C 88 % 1027,7 hPa 0,0 l/m 12,9 km/h (3 Bft) W-NW 292 0,000 mm 0,0 UV-I 0 W/m -1,9 C -5,9 C 16,1 km/h (3 Bft) 95,65 %
20.02.2020 02:09 -0,2 C -0,6 C 88 % 1027,7 hPa 0,0 l/m 11,3 km/h (2 Bft) W-NW 292 0,000 mm 0,0 UV-I 0 W/m -1,9 C -4,7 C 17,7 km/h (3 Bft) 100,00 %
20.02.2020 02:08 -0,2 C -0,6 C 88 % 1027,8 hPa 0,0 l/m 9,7 km/h (2 Bft) W 270 0,000 mm 0,0 UV-I 0 W/m -1,9 C -3,4 C 16,1 km/h (3 Bft) 95,65 %
20.02.2020 02:07 -0,2 C -0,6 C 88 % 1027,7 hPa 0,0 l/m 12,9 km/h (3 Bft) W-NW 292 0,000 mm 0,0 UV-I 0 W/m -1,9 C -5,9 C 16,1 km/h (3 Bft) 100,00 %
20.02.2020 02:06 -0,2 C -0,6 C 88 % 1027,7 hPa 0,0 l/m 11,3 km/h (2 Bft) W-NW 292 0,000 mm 0,0 UV-I 0 W/m -1,9 C -4,7 C 14,5 km/h (3 Bft) 100,00 %
20.02.2020 02:05 -0,2 C -0,6 C 88 % 1027,8 hPa 0,0 l/m 8,0 km/h (2 Bft) W-NW 292 0,000 mm 0,0 UV-I 0 W/m -1,9 C -1,9 C 16,1 km/h (3 Bft) 100,00 %
20.02.2020 02:04 -0,2 C -0,6 C 88 % 1027,7 hPa 0,0 l/m 12,9 km/h (3 Bft) W-NW 292 0,000 mm 0,0 UV-I 0 W/m -1,9 C -5,9 C 16,1 km/h (3 Bft) 100,00 %
20.02.2020 02:03 -0,2 C -0,6 C 87 % 1027,7 hPa 0,0 l/m 14,5 km/h (3 Bft) W-NW 292 0,000 mm 0,0 UV-I 0 W/m -2,1 C -6,9 C 22,5 km/h (4 Bft) 95,65 %
20.02.2020 02:02 -0,2 C -0,6 C 87 % 1027,7 hPa 0,0 l/m 9,7 km/h (2 Bft) W 270 0,000 mm 0,0 UV-I 0 W/m -2,1 C -3,4 C 16,1 km/h (3 Bft) 91,30 %
20.02.2020 02:01 -0,2 C -0,6 C 87 % 1027,8 hPa 0,0 l/m 9,7 km/h (2 Bft) W-NW 292 0,000 mm 0,0 UV-I 0 W/m -2,1 C -3,4 C 16,1 km/h (3 Bft) 100,00 %
20.02.2020 02:00 -0,2 C -0,6 C 87 % 1027,7 hPa 0,0 l/m 16,1 km/h (3 Bft) W-NW 292 0,025 mm 0,0 UV-I 0 W/m -2,1 C -7,9 C 19,3 km/h (3 Bft) 100,00 %
20.02.2020 01:59 -0,2 C -0,6 C 87 % 1027,7 hPa 0,0 l/m 14,5 km/h (3 Bft) W-NW 292 0,000 mm 0,0 UV-I 0 W/m -2,1 C -6,9 C 17,7 km/h (3 Bft) 95,65 %
20.02.2020 01:58 -0,2 C -0,6 C 87 % 1027,7 hPa 0,0 l/m 14,5 km/h (3 Bft) W-NW 292 0,000 mm 0,0 UV-I 0 W/m -2,1 C -6,9 C 20,9 km/h (4 Bft) 100,00 %
20.02.2020 01:57 -0,2 C -0,6 C 88 % 1027,7 hPa 0,0 l/m 11,3 km/h (2 Bft) W 270 0,000 mm 0,0 UV-I 0 W/m -1,9 C -4,7 C 16,1 km/h (3 Bft) 95,65 %
20.02.2020 01:56 -0,3 C -0,6 C 88 % 1027,8 hPa 0,0 l/m 12,9 km/h (3 Bft) W-NW 292 0,000 mm 0,0 UV-I 0 W/m -2,0 C -6,0 C 17,7 km/h (3 Bft) 95,65 %
20.02.2020 01:55 -0,2 C -0,6 C 88 % 1027,7 hPa 0,0 l/m 11,3 km/h (2 Bft) W-NW 292 0,000 mm 0,0 UV-I 0 W/m -1,9 C -4,7 C 17,7 km/h (3 Bft) 95,65 %
20.02.2020 01:54 -0,3 C -0,6 C 88 % 1027,7 hPa 0,0 l/m 16,1 km/h (3 Bft) W-NW 292 0,000 mm 0,0 UV-I 0 W/m -2,0 C -8,0 C 19,3 km/h (3 Bft) 86,96 %
20.02.2020 01:53 -0,2 C -0,6 C 88 % 1027,7 hPa 0,0 l/m 14,5 km/h (3 Bft) W-NW 292 0,000 mm 0,0 UV-I 0 W/m -1,9 C -6,9 C 17,7 km/h (3 Bft) 100,00 %
20.02.2020 01:52 -0,2 C -0,6 C 87 % 1027,8 hPa 0,0 l/m 12,9 km/h (3 Bft) W 270 0,000 mm 0,0 UV-I 0 W/m -2,1 C -5,9 C 19,3 km/h (3 Bft) 95,65 %
20.02.2020 01:51 -0,2 C -0,6 C 87 % 1027,9 hPa 0,0 l/m 9,7 km/h (2 Bft) W-NW 292 0,000 mm 0,0 UV-I 0 W/m -2,1 C -3,4 C 16,1 km/h (3 Bft) 95,65 %
20.02.2020 01:50 -0,2 C -0,6 C 87 % 1027,8 hPa 0,0 l/m 14,5 km/h (3 Bft) W-NW 292 0,000 mm 0,0 UV-I 0 W/m -2,1 C -6,9 C 17,7 km/h (3 Bft) 91,30 %
20.02.2020 01:49 -0,2 C -0,6 C 87 % 1027,8 hPa 0,0 l/m 11,3 km/h (2 Bft) W-NW 292 0,000 mm 0,0 UV-I 0 W/m -2,1 C -4,7 C 17,7 km/h (3 Bft) 86,96 %
20.02.2020 01:48 -0,2 C -0,6 C 87 % 1027,7 hPa 0,0 l/m 11,3 km/h (2 Bft) W-NW 292 0,000 mm 0,0 UV-I 0 W/m -2,1 C -4,7 C 16,1 km/h (3 Bft) 95,65 %
20.02.2020 01:47 -0,1 C -0,6 C 88 % 1027,8 hPa 0,0 l/m 14,5 km/h (3 Bft) W-NW 292 0,000 mm 0,0 UV-I 0 W/m -1,8 C -6,8 C 17,7 km/h (3 Bft) 95,65 %
20.02.2020 01:46 -0,1 C -0,6 C 88 % 1027,8 hPa 0,0 l/m 14,5 km/h (3 Bft) W-NW 292 0,000 mm 0,0 UV-I 0 W/m -1,8 C -6,8 C 17,7 km/h (3 Bft) 86,96 %
20.02.2020 01:45 -0,1 C -0,6 C 88 % 1027,8 hPa 0,0 l/m 11,3 km/h (2 Bft) W-NW 292 0,000 mm 0,0 UV-I 0 W/m -1,8 C -4,6 C 20,9 km/h (4 Bft) 86,96 %
20.02.2020 01:44 -0,1 C 0,0 C 88 % 1027,8 hPa 0,0 l/m 14,5 km/h (3 Bft) W-NW 292 0,000 mm 0,0 UV-I 0 W/m -1,8 C -6,8 C 17,7 km/h (3 Bft) 86,96 %
20.02.2020 01:43 -0,1 C 0,0 C 88 % 1027,7 hPa 0,0 l/m 6,4 km/h (2 Bft) W-NW 292 0,000 mm 0,0 UV-I 0 W/m -1,8 C -0,1 C 14,5 km/h (3 Bft) 91,30 %
20.02.2020 01:42 -0,1 C -0,6 C 88 % 1027,8 hPa 0,0 l/m 6,4 km/h (2 Bft) W-NW 292 0,000 mm 0,0 UV-I 0 W/m -1,8 C -0,1 C 12,9 km/h (3 Bft) 91,30 %
20.02.2020 01:41 -0,1 C 0,0 C 88 % 1027,8 hPa 0,0 l/m 14,5 km/h (3 Bft) W-NW 292 0,000 mm 0,0 UV-I 0 W/m -1,8 C -6,8 C 17,7 km/h (3 Bft) 95,65 %
20.02.2020 01:40 -0,1 C 0,0 C 88 % 1027,7 hPa 0,0 l/m 12,9 km/h (3 Bft) W-NW 292 0,000 mm 0,0 UV-I 0 W/m -1,8 C -5,8 C 16,1 km/h (3 Bft) 95,65 %
20.02.2020 01:39 -0,1 C 0,0 C 88 % 1027,7 hPa 0,0 l/m 17,7 km/h (3 Bft) W-NW 292 0,000 mm 0,0 UV-I 0 W/m -1,8 C -8,6 C 22,5 km/h (4 Bft) 95,65 %
20.02.2020 01:38 0,0 C 0,0 C 88 % 1027,8 hPa 0,0 l/m 16,1 km/h (3 Bft) W-NW 292 0,000 mm 0,0 UV-I 0 W/m -1,7 C -7,6 C 20,9 km/h (4 Bft) 91,30 %
20.02.2020 01:37 0,0 C 0,0 C 87 % 1027,8 hPa 0,0 l/m 14,5 km/h (3 Bft) W-NW 292 0,000 mm 0,0 UV-I 0 W/m -1,9 C -6,7 C 17,7 km/h (3 Bft) 95,65 %
20.02.2020 01:36 0,0 C 0,0 C 87 % 1027,7 hPa 0,0 l/m 12,9 km/h (3 Bft) W-NW 292 0,000 mm 0,0 UV-I 0 W/m -1,9 C -5,6 C 16,1 km/h (3 Bft) 95,65 %
20.02.2020 01:35 0,0 C 0,0 C 88 % 1027,7 hPa 0,0 l/m 11,3 km/h (2 Bft) W-NW 292 0,000 mm 0,0 UV-I 0 W/m -1,7 C -4,5 C 14,5 km/h (3 Bft) 91,30 %
20.02.2020 01:34 0,0 C 0,0 C 88 % 1027,7 hPa 0,0 l/m 12,9 km/h (3 Bft) W-NW 292 0,000 mm 0,0 UV-I 0 W/m -1,7 C -5,6 C 20,9 km/h (4 Bft) 100,00 %
20.02.2020 01:33 0,0 C 0,0 C 88 % 1027,7 hPa 0,0 l/m 16,1 km/h (3 Bft) W-NW 292 0,000 mm 0,0 UV-I 0 W/m -1,7 C -7,6 C 22,5 km/h (4 Bft) 95,65 %
20.02.2020 01:32 0,0 C 0,0 C 88 % 1027,7 hPa 0,0 l/m 8,0 km/h (2 Bft) W-NW 292 0,000 mm 0,0 UV-I 0 W/m -1,7 C -1,6 C 14,5 km/h (3 Bft) 100,00 %
20.02.2020 01:31 0,0 C 0,0 C 88 % 1027,7 hPa 0,0 l/m 17,7 km/h (3 Bft) W-NW 292 0,000 mm 0,0 UV-I 0 W/m -1,7 C -8,5 C 22,5 km/h (4 Bft) 91,30 %
20.02.2020 01:30 0,0 C 0,0 C 88 % 1027,7 hPa 0,0 l/m 12,9 km/h (3 Bft) W 270 0,000 mm 0,0 UV-I 0 W/m -1,7 C -5,6 C 20,9 km/h (4 Bft) 100,00 %
20.02.2020 01:29 0,0 C 0,0 C 88 % 1027,8 hPa 0,0 l/m 12,9 km/h (3 Bft) W-NW 292 0,000 mm 0,0 UV-I 0 W/m -1,7 C -5,6 C 20,9 km/h (4 Bft) 91,30 %
20.02.2020 01:28 0,0 C 0,0 C 88 % 1027,8 hPa 0,0 l/m 9,7 km/h (2 Bft) W-NW 292 0,000 mm 0,0 UV-I 0 W/m -1,7 C -3,2 C 19,3 km/h (3 Bft) 91,30 %
20.02.2020 01:27 0,0 C 0,0 C 88 % 1027,8 hPa 0,0 l/m 9,7 km/h (2 Bft) W-NW 292 0,000 mm 0,0 UV-I 0 W/m -1,7 C -3,2 C 14,5 km/h (3 Bft) 100,00 %
20.02.2020 01:26 0,0 C 0,0 C 88 % 1027,7 hPa 0,0 l/m 14,5 km/h (3 Bft) W-NW 292 0,000 mm 0,0 UV-I 0 W/m -1,7 C -6,7 C 16,1 km/h (3 Bft) 86,96 %
20.02.2020 01:25 0,1 C 0,0 C 88 % 1027,8 hPa 0,0 l/m 12,9 km/h (3 Bft) W-NW 292 0,000 mm 0,0 UV-I 0 W/m -1,6 C -5,5 C 17,7 km/h (3 Bft) 95,65 %
20.02.2020 01:24 0,1 C 0,0 C 88 % 1027,7 hPa 0,0 l/m 12,9 km/h (3 Bft) W-NW 292 0,000 mm 0,0 UV-I 0 W/m -1,6 C -5,5 C 17,7 km/h (3 Bft) 91,30 %
20.02.2020 01:23 0,0 C 0,0 C 88 % 1027,8 hPa 0,0 l/m 12,9 km/h (3 Bft) W-NW 292 0,000 mm 0,0 UV-I 0 W/m -1,7 C -5,6 C 17,7 km/h (3 Bft) 95,65 %
20.02.2020 01:22 0,1 C 0,0 C 88 % 1027,7 hPa 0,0 l/m 12,9 km/h (3 Bft) W-NW 292 0,000 mm 0,0 UV-I 0 W/m -1,6 C -5,5 C 17,7 km/h (3 Bft) 100,00 %
20.02.2020 01:21 0,1 C 0,0 C 88 % 1027,7 hPa 0,0 l/m 14,5 km/h (3 Bft) W-NW 292 0,000 mm 0,0 UV-I 0 W/m -1,6 C -6,6 C 19,3 km/h (3 Bft) 91,30 %
20.02.2020 01:20 0,1 C 0,0 C 88 % 1027,8 hPa 0,0 l/m 14,5 km/h (3 Bft) W 270 0,000 mm 0,0 UV-I 0 W/m -1,6 C -6,6 C 19,3 km/h (3 Bft) 100,00 %
20.02.2020 01:19 0,1 C 0,0 C 88 % 1027,7 hPa 0,0 l/m 11,3 km/h (2 Bft) W-NW 292 0,000 mm 0,0 UV-I 0 W/m -1,6 C -4,4 C 16,1 km/h (3 Bft) 95,65 %
20.02.2020 01:18 0,1 C 0,0 C 88 % 1027,7 hPa 0,0 l/m 12,9 km/h (3 Bft) W-NW 292 0,000 mm 0,0 UV-I 0 W/m -1,6 C -5,5 C 17,7 km/h (3 Bft) 100,00 %
20.02.2020 01:17 0,1 C 0,0 C 88 % 1027,8 hPa 0,0 l/m 11,3 km/h (2 Bft) W-NW 292 0,000 mm 0,0 UV-I 0 W/m -1,6 C -4,4 C 16,1 km/h (3 Bft) 100,00 %
20.02.2020 01:16 0,1 C 0,0 C 88 % 1027,8 hPa 0,0 l/m 16,1 km/h (3 Bft) W-NW 292 0,000 mm 0,0 UV-I 0 W/m -1,6 C -7,5 C 19,3 km/h (3 Bft) 95,65 %
20.02.2020 01:15 0,1 C 0,0 C 88 % 1027,8 hPa 0,0 l/m 11,3 km/h (2 Bft) W-NW 292 0,000 mm 0,0 UV-I 0 W/m -1,6 C -4,4 C 14,5 km/h (3 Bft) 100,00 %
20.02.2020 01:14 0,1 C 0,0 C 88 % 1027,8 hPa 0,0 l/m 12,9 km/h (3 Bft) W-NW 292 0,000 mm 0,0 UV-I 0 W/m -1,6 C -5,5 C 20,9 km/h (4 Bft) 95,65 %
20.02.2020 01:13 0,2 C 0,0 C 88 % 1027,8 hPa 0,0 l/m 14,5 km/h (3 Bft) W-NW 292 0,000 mm 0,0 UV-I 0 W/m -1,5 C -6,4 C 17,7 km/h (3 Bft) 100,00 %
20.02.2020 01:12 0,2 C 0,0 C 88 % 1027,8 hPa 0,0 l/m 14,5 km/h (3 Bft) W-NW 292 0,000 mm 0,0 UV-I 0 W/m -1,5 C -6,4 C 16,1 km/h (3 Bft) 91,30 %
20.02.2020 01:11 0,2 C 0,0 C 88 % 1027,8 hPa 0,0 l/m 11,3 km/h (2 Bft) W-SW 247 0,000 mm 0,0 UV-I 0 W/m -1,5 C -4,3 C 19,3 km/h (3 Bft) 100,00 %
20.02.2020 01:10 0,2 C 0,0 C 88 % 1027,7 hPa 0,0 l/m 11,3 km/h (2 Bft) W-NW 292 0,000 mm 0,0 UV-I 0 W/m -1,5 C -4,3 C 16,1 km/h (3 Bft) 100,00 %
20.02.2020 01:09 0,2 C 0,0 C 88 % 1027,8 hPa 0,0 l/m 14,5 km/h (3 Bft) W-NW 292 0,000 mm 0,0 UV-I 0 W/m -1,5 C -6,4 C 17,7 km/h (3 Bft) 95,65 %
20.02.2020 01:08 0,2 C 0,0 C 88 % 1027,8 hPa 0,0 l/m 12,9 km/h (3 Bft) W-NW 292 0,000 mm 0,0 UV-I 0 W/m -1,5 C -5,4 C 16,1 km/h (3 Bft) 95,65 %
20.02.2020 01:07 0,2 C 0,0 C 88 % 1027,8 hPa 0,0 l/m 12,9 km/h (3 Bft) W-NW 292 0,000 mm 0,0 UV-I 0 W/m -1,5 C -5,4 C 16,1 km/h (3 Bft) 95,65 %
20.02.2020 01:06 0,2 C 0,0 C 88 % 1027,7 hPa 0,0 l/m 9,7 km/h (2 Bft) W-NW 292 0,000 mm 0,0 UV-I 0 W/m -1,5 C -3,0 C 14,5 km/h (3 Bft) 100,00 %
20.02.2020 01:05 0,2 C 0,0 C 88 % 1027,8 hPa 0,0 l/m 11,3 km/h (2 Bft) W 270 0,000 mm 0,0 UV-I 0 W/m -1,5 C -4,3 C 17,7 km/h (3 Bft) 91,30 %
20.02.2020 01:04 0,2 C 0,0 C 88 % 1027,8 hPa 0,0 l/m 14,5 km/h (3 Bft) W-NW 292 0,000 mm 0,0 UV-I 0 W/m -1,5 C -6,4 C 25,7 km/h (4 Bft) 100,00 %
20.02.2020 01:03 0,2 C 0,0 C 88 % 1027,8 hPa 0,0 l/m 12,9 km/h (3 Bft) W-NW 292 0,000 mm 0,0 UV-I 0 W/m -1,5 C -5,4 C 16,1 km/h (3 Bft) 95,65 %
20.02.2020 01:02 0,2 C 0,0 C 88 % 1027,8 hPa 0,0 l/m 11,3 km/h (2 Bft) W-NW 292 0,000 mm 0,0 UV-I 0 W/m -1,5 C -4,3 C 14,5 km/h (3 Bft) 100,00 %
20.02.2020 01:01 0,2 C 0,0 C 88 % 1027,7 hPa 0,0 l/m 8,0 km/h (2 Bft) W 270 0,000 mm 0,0 UV-I 0 W/m -1,5 C -1,4 C 14,5 km/h (3 Bft) 91,30 %
20.02.2020 01:00 0,2 C 0,0 C 88 % 1027,7 hPa 0,0 l/m 16,1 km/h (3 Bft) W-NW 292 0,025 mm 0,0 UV-I 0 W/m -1,5 C -7,4 C 20,9 km/h (4 Bft) 91,30 %
20.02.2020 00:59 0,2 C 0,0 C 88 % 1027,7 hPa 0,0 l/m 12,9 km/h (3 Bft) W-NW 292 0,000 mm 0,0 UV-I 0 W/m -1,5 C -5,4 C 17,7 km/h (3 Bft) 95,65 %
20.02.2020 00:58 0,2 C 0,0 C 88 % 1027,7 hPa 0,0 l/m 12,9 km/h (3 Bft) W-NW 292 0,000 mm 0,0 UV-I 0 W/m -1,5 C -5,4 C 19,3 km/h (3 Bft) 91,30 %
20.02.2020 00:57 0,2 C 0,0 C 88 % 1027,7 hPa 0,0 l/m 12,9 km/h (3 Bft) W-NW 292 0,000 mm 0,0 UV-I 0 W/m -1,5 C -5,4 C 17,7 km/h (3 Bft) 100,00 %
20.02.2020 00:56 0,2 C 0,0 C 88 % 1027,7 hPa 0,0 l/m 11,3 km/h (2 Bft) NW 315 0,000 mm 0,0 UV-I 0 W/m -1,5 C -4,3 C 22,5 km/h (4 Bft) 95,65 %
20.02.2020 00:55 0,2 C 0,0 C 88 % 1027,7 hPa 0,0 l/m 16,1 km/h (3 Bft) W-NW 292 0,000 mm 0,0 UV-I 0 W/m -1,5 C -7,4 C 27,4 km/h (4 Bft) 100,00 %
20.02.2020 00:54 0,2 C 0,0 C 89 % 1027,7 hPa 0,0 l/m 19,3 km/h (3 Bft) W-NW 292 0,000 mm 0,0 UV-I 0 W/m -1,4 C -9,0 C 24,1 km/h (4 Bft) 95,65 %
20.02.2020 00:53 0,2 C 0,0 C 89 % 1027,6 hPa 0,0 l/m 14,5 km/h (3 Bft) W-NW 292 0,000 mm 0,0 UV-I 0 W/m -1,4 C -6,4 C 20,9 km/h (4 Bft) 95,65 %
20.02.2020 00:52 0,2 C 0,0 C 89 % 1027,6 hPa 0,0 l/m 14,5 km/h (3 Bft) W-NW 292 0,000 mm 0,0 UV-I 0 W/m -1,4 C -6,4 C 17,7 km/h (3 Bft) 95,65 %
20.02.2020 00:51 0,2 C 0,0 C 89 % 1027,7 hPa 0,0 l/m 16,1 km/h (3 Bft) W-NW 292 0,000 mm 0,0 UV-I 0 W/m -1,4 C -7,4 C 20,9 km/h (4 Bft) 100,00 %
20.02.2020 00:50 0,2 C 0,0 C 89 % 1027,7 hPa 0,0 l/m 16,1 km/h (3 Bft) W-NW 292 0,000 mm 0,0 UV-I 0 W/m -1,4 C -7,4 C 19,3 km/h (3 Bft) 100,00 %
20.02.2020 00:49 0,2 C 0,0 C 89 % 1027,6 hPa 0,0 l/m 16,1 km/h (3 Bft) W-NW 292 0,000 mm 0,0 UV-I 0 W/m -1,4 C -7,4 C 20,9 km/h (4 Bft) 100,00 %
20.02.2020 00:48 0,2 C 0,0 C 89 % 1027,7 hPa 0,0 l/m 16,1 km/h (3 Bft) W-NW 292 0,000 mm 0,0 UV-I 0 W/m -1,4 C -7,4 C 19,3 km/h (3 Bft) 100,00 %
20.02.2020 00:47 0,2 C 0,0 C 89 % 1027,6 hPa 0,0 l/m 16,1 km/h (3 Bft) W-NW 292 0,000 mm 0,0 UV-I 0 W/m -1,4 C -7,4 C 24,1 km/h (4 Bft) 100,00 %
20.02.2020 00:46 0,2 C 0,0 C 89 % 1027,7 hPa 0,0 l/m 16,1 km/h (3 Bft) W-NW 292 0,000 mm 0,0 UV-I 0 W/m -1,4 C -7,4 C 19,3 km/h (3 Bft) 91,30 %
20.02.2020 00:45 0,2 C 0,0 C 89 % 1027,6 hPa 0,0 l/m 8,0 km/h (2 Bft) NW 315 0,000 mm 0,0 UV-I 0 W/m -1,4 C -1,4 C 14,5 km/h (3 Bft) 95,65 %
20.02.2020 00:44 0,2 C 0,0 C 89 % 1027,6 hPa 0,0 l/m 12,9 km/h (3 Bft) W 270 0,000 mm 0,0 UV-I 0 W/m -1,4 C -5,4 C 19,3 km/h (3 Bft) 100,00 %
20.02.2020 00:43 0,2 C 0,0 C 89 % 1027,7 hPa 0,0 l/m 12,9 km/h (3 Bft) W-NW 292 0,000 mm 0,0 UV-I 0 W/m -1,4 C -5,4 C 17,7 km/h (3 Bft) 95,65 %
20.02.2020 00:42 0,2 C 0,0 C 89 % 1027,7 hPa 0,0 l/m 14,5 km/h (3 Bft) W-NW 292 0,000 mm 0,0 UV-I 0 W/m -1,4 C -6,4 C 19,3 km/h (3 Bft) 95,65 %
20.02.2020 00:41 0,2 C 0,0 C 89 % 1027,7 hPa 0,0 l/m 11,3 km/h (2 Bft) W-NW 292 0,000 mm 0,0 UV-I 0 W/m -1,4 C -4,3 C 17,7 km/h (3 Bft) 95,65 %
20.02.2020 00:40 0,2 C 0,0 C 89 % 1027,7 hPa 0,0 l/m 14,5 km/h (3 Bft) W-NW 292 0,000 mm 0,0 UV-I 0 W/m -1,4 C -6,4 C 22,5 km/h (4 Bft) 95,65 %
20.02.2020 00:39 0,2 C 0,0 C 89 % 1027,7 hPa 0,0 l/m 12,9 km/h (3 Bft) W-NW 292 0,000 mm 0,0 UV-I 0 W/m -1,4 C -5,4 C 22,5 km/h (4 Bft) 91,30 %
20.02.2020 00:38 0,2 C 0,0 C 89 % 1027,7 hPa 0,0 l/m 9,7 km/h (2 Bft) W 270 0,000 mm 0,0 UV-I 0 W/m -1,4 C -3,0 C 19,3 km/h (3 Bft) 100,00 %
20.02.2020 00:37 0,1 C 0,0 C 89 % 1027,6 hPa 0,0 l/m 11,3 km/h (2 Bft) W-NW 292 0,000 mm 0,0 UV-I 0 W/m -1,5 C -4,4 C 17,7 km/h (3 Bft) 100,00 %
20.02.2020 00:36 0,2 C 0,0 C 89 % 1027,7 hPa 0,0 l/m 14,5 km/h (3 Bft) W-NW 292 0,000 mm 0,0 UV-I 0 W/m -1,4 C -6,4 C 20,9 km/h (4 Bft) 100,00 %
20.02.2020 00:35 0,2 C 0,0 C 89 % 1027,5 hPa 0,0 l/m 20,9 km/h (4 Bft) W-NW 292 0,000 mm 0,0 UV-I 0 W/m -1,4 C -9,8 C 27,4 km/h (4 Bft) 91,30 %
20.02.2020 00:34 0,2 C 0,0 C 89 % 1027,6 hPa 0,0 l/m 17,7 km/h (3 Bft) W-NW 292 0,000 mm 0,0 UV-I 0 W/m -1,4 C -8,2 C 25,7 km/h (4 Bft) 100,00 %
20.02.2020 00:33 0,1 C 0,0 C 89 % 1027,6 hPa 0,0 l/m 6,4 km/h (2 Bft) W-NW 292 0,000 mm 0,0 UV-I 0 W/m -1,5 C 0,1 C 16,1 km/h (3 Bft) 100,00 %
20.02.2020 00:32 0,1 C 0,0 C 89 % 1027,6 hPa 0,0 l/m 14,5 km/h (3 Bft) W-NW 292 0,000 mm 0,0 UV-I 0 W/m -1,5 C -6,6 C 24,1 km/h (4 Bft) 95,65 %
20.02.2020 00:31 0,1 C 0,0 C 89 % 1027,6 hPa 0,0 l/m 16,1 km/h (3 Bft) W-NW 292 0,000 mm 0,0 UV-I 0 W/m -1,5 C -7,5 C 22,5 km/h (4 Bft) 95,65 %
20.02.2020 00:30 0,1 C 0,0 C 89 % 1027,6 hPa 0,0 l/m 14,5 km/h (3 Bft) W-NW 292 0,000 mm 0,0 UV-I 0 W/m -1,5 C -6,6 C 20,9 km/h (4 Bft) 100,00 %
20.02.2020 00:29 0,1 C 0,0 C 89 % 1027,6 hPa 0,0 l/m 16,1 km/h (3 Bft) W-NW 292 0,000 mm 0,0 UV-I 0 W/m -1,5 C -7,5 C 22,5 km/h (4 Bft) 91,30 %
20.02.2020 00:28 0,1 C 0,0 C 89 % 1027,6 hPa 0,0 l/m 16,1 km/h (3 Bft) W-NW 292 0,000 mm 0,0 UV-I 0 W/m -1,5 C -7,5 C 25,7 km/h (4 Bft) 100,00 %
20.02.2020 00:27 0,1 C 0,0 C 89 % 1027,5 hPa 0,0 l/m 12,9 km/h (3 Bft) W 270 0,000 mm 0,0 UV-I 0 W/m -1,5 C -5,5 C 27,4 km/h (4 Bft) 100,00 %
20.02.2020 00:26 0,1 C 0,0 C 89 % 1027,6 hPa 0,0 l/m 22,5 km/h (4 Bft) W-NW 292 0,000 mm 0,0 UV-I 0 W/m -1,5 C -10,6 C 27,4 km/h (4 Bft) 95,65 %
20.02.2020 00:25 0,1 C 0,0 C 89 % 1027,5 hPa 0,0 l/m 14,5 km/h (3 Bft) W-NW 292 0,000 mm 0,0 UV-I 0 W/m -1,5 C -6,6 C 19,3 km/h (3 Bft) 91,30 %
20.02.2020 00:24 0,1 C 0,0 C 89 % 1027,5 hPa 0,0 l/m 14,5 km/h (3 Bft) W-NW 292 0,000 mm 0,0 UV-I 0 W/m -1,5 C -6,6 C 22,5 km/h (4 Bft) 100,00 %
20.02.2020 00:23 0,1 C 0,0 C 89 % 1027,6 hPa 0,0 l/m 12,9 km/h (3 Bft) W-NW 292 0,000 mm 0,0 UV-I 0 W/m -1,5 C -5,5 C 19,3 km/h (3 Bft) 91,30 %
20.02.2020 00:22 0,1 C 0,0 C 89 % 1027,5 hPa 0,0 l/m 14,5 km/h (3 Bft) NW 315 0,000 mm 0,0 UV-I 0 W/m -1,5 C -6,6 C 20,9 km/h (4 Bft) 100,00 %
20.02.2020 00:21 0,1 C 0,0 C 89 % 1027,5 hPa 0,0 l/m 14,5 km/h (3 Bft) W-NW 292 0,000 mm 0,0 UV-I 0 W/m -1,5 C -6,6 C 20,9 km/h (4 Bft) 95,65 %
20.02.2020 00:20 0,1 C 0,0 C 89 % 1027,5 hPa 0,0 l/m 16,1 km/h (3 Bft) W-NW 292 0,000 mm 0,0 UV-I 0 W/m -1,5 C -7,5 C 22,5 km/h (4 Bft) 95,65 %
20.02.2020 00:19 0,1 C 0,0 C 89 % 1027,5 hPa 0,0 l/m 17,7 km/h (3 Bft) W-NW 292 0,000 mm 0,0 UV-I 0 W/m -1,5 C -8,4 C 24,1 km/h (4 Bft) 100,00 %
20.02.2020 00:18 0,0 C 0,0 C 89 % 1027,4 hPa 0,0 l/m 11,3 km/h (2 Bft) W-NW 292 0,000 mm 0,0 UV-I 0 W/m -1,6 C -4,5 C 19,3 km/h (3 Bft) 86,96 %
20.02.2020 00:17 0,1 C 0,0 C 89 % 1027,4 hPa 0,0 l/m 17,7 km/h (3 Bft) W-NW 292 0,000 mm 0,0 UV-I 0 W/m -1,5 C -8,4 C 20,9 km/h (4 Bft) 91,30 %
20.02.2020 00:16 0,1 C 0,0 C 89 % 1027,4 hPa 0,0 l/m 16,1 km/h (3 Bft) W-NW 292 0,000 mm 0,0 UV-I 0 W/m -1,5 C -7,5 C 22,5 km/h (4 Bft) 91,30 %
20.02.2020 00:15 0,1 C 0,0 C 89 % 1027,4 hPa 0,0 l/m 14,5 km/h (3 Bft) W-NW 292 0,000 mm 0,0 UV-I 0 W/m -1,5 C -6,6 C 22,5 km/h (4 Bft) 100,00 %
20.02.2020 00:14 0,1 C 0,0 C 89 % 1027,4 hPa 0,0 l/m 16,1 km/h (3 Bft) W-NW 292 0,000 mm 0,0 UV-I 0 W/m -1,5 C -7,5 C 20,9 km/h (4 Bft) 95,65 %
20.02.2020 00:13 0,1 C 0,0 C 89 % 1027,3 hPa 0,0 l/m 17,7 km/h (3 Bft) W-NW 292 0,000 mm 0,0 UV-I 0 W/m -1,5 C -8,4 C 20,9 km/h (4 Bft) 91,30 %
20.02.2020 00:12 0,1 C 0,0 C 89 % 1027,3 hPa 0,0 l/m 19,3 km/h (3 Bft) W-NW 292 0,000 mm 0,0 UV-I 0 W/m -1,5 C -9,2 C 24,1 km/h (4 Bft) 91,30 %
20.02.2020 00:11 0,1 C 0,0 C 89 % 1027,3 hPa 0,0 l/m 17,7 km/h (3 Bft) W-NW 292 0,000 mm 0,0 UV-I 0 W/m -1,5 C -8,4 C 22,5 km/h (4 Bft) 95,65 %
20.02.2020 00:10 0,2 C 0,0 C 89 % 1027,3 hPa 0,0 l/m 17,7 km/h (3 Bft) NW 315 0,000 mm 0,0 UV-I 0 W/m -1,4 C -8,2 C 20,9 km/h (4 Bft) 95,65 %
20.02.2020 00:09 0,2 C 0,0 C 89 % 1027,3 hPa 0,0 l/m 16,1 km/h (3 Bft) W-NW 292 0,000 mm 0,0 UV-I 0 W/m -1,4 C -7,4 C 22,5 km/h (4 Bft) 95,65 %
20.02.2020 00:08 0,2 C 0,0 C 89 % 1027,3 hPa 0,0 l/m 16,1 km/h (3 Bft) W-NW 292 0,000 mm 0,0 UV-I 0 W/m -1,4 C -7,4 C 24,1 km/h (4 Bft) 100,00 %
20.02.2020 00:07 0,2 C 0,6 C 89 % 1027,4 hPa 0,0 l/m 16,1 km/h (3 Bft) W-NW 292 0,000 mm 0,0 UV-I 0 W/m -1,4 C -7,4 C 19,3 km/h (3 Bft) 91,30 %
20.02.2020 00:06 0,2 C 0,6 C 89 % 1027,3 hPa 0,0 l/m 16,1 km/h (3 Bft) W-NW 292 0,000 mm 0,0 UV-I 0 W/m -1,4 C -7,4 C 20,9 km/h (4 Bft) 95,65 %
20.02.2020 00:05 0,2 C 0,6 C 89 % 1027,3 hPa 0,0 l/m 14,5 km/h (3 Bft) W-NW 292 0,000 mm 0,0 UV-I 0 W/m -1,4 C -6,4 C 20,9 km/h (4 Bft) 95,65 %
20.02.2020 00:04 0,2 C 0,6 C 89 % 1027,3 hPa 0,0 l/m 16,1 km/h (3 Bft) NW 315 0,000 mm 0,0 UV-I 0 W/m -1,4 C -7,4 C 19,3 km/h (3 Bft) 100,00 %
20.02.2020 00:03 0,3 C 0,6 C 89 % 1027,3 hPa 0,0 l/m 16,1 km/h (3 Bft) W-NW 292 0,000 mm 0,0 UV-I 0 W/m -1,3 C -7,3 C 22,5 km/h (4 Bft) 86,96 %
20.02.2020 00:02 0,3 C 0,6 C 89 % 1027,2 hPa 0,0 l/m 17,7 km/h (3 Bft) W-NW 292 0,000 mm 0,0 UV-I 0 W/m -1,3 C -8,1 C 25,7 km/h (4 Bft) 100,00 %
20.02.2020 00:01 0,3 C 0,6 C 89 % 1027,2 hPa 0,0 l/m 14,5 km/h (3 Bft) W-NW 292 0,000 mm 0,0 UV-I 0 W/m -1,3 C -6,3 C 17,7 km/h (3 Bft) 86,96 %
20.02.2020 00:00 0,3 C 0,6 C 89 % 1027,3 hPa 0,0 l/m 16,1 km/h (3 Bft) W-NW 292 0,025 mm 0,0 UV-I 0 W/m -1,3 C -7,3 C 20,9 km/h (4 Bft) 95,65 %
_ Min-Zeit 03:13 03:15 04:48 00:01 - 04:28 - - - - - 03:13 00:26 04:25 03:13
Minimum _ -1,3 C -2,2 C 85 % 1027,2 hPa - 1,6 km/h (1 Bft) - - - - - -3,0 C -10,6 C 4,8 km/h (1 Bft) 82,61 %
_ Max-Zeit 00:00 00:00 00:00 01:51 00:00 00:26 - - 00:00 00:00 00:00 00:00 00:33 00:26 00:02
Maximum _ 0,3 C 0,6 C 89 % 1027,9 hPa 0,0 l/m 22,5 km/h
W-NW (4 Bft)
- - 0,025 mm 0,0 UV-I 0 W/m -1,3 C 0,1 C 27,4 km/h
W (4 Bft)
100,00 %
Durchschnitt _ -0,3 C -0,6 C 87 % 1027,5 hPa #0,0 l/m 11,4 km/h (2 Bft) W-NW - #0,100 mm 0,0 UV-I 0 W/m -2,2 C -4,8 C 15,9 km/h (3 Bft) 95,94 %